sat.trackr.live / text

‹ back to catalog

DIRECTV 14

NORAD 40333 · 2014-078B

PAYLOAD ACTIVE UNKNOWN

§ Identity

Operator
Country
US
Launch date
2014-12-06
Launch site
FRGUI
Launch vehicle
Mass (kg)
RCS (m²)
34.13

Purposes: comms

External: N2YO · Heavens-Above · Gunter

§ Orbital elements

Epoch: 2026-09-20T03:59:03.866208Z

Period
1,436.15 min
Inclination
0.0173°
Eccentricity
0.0000921
Mean motion
1.00268348 rev/d
Perigee alt
35,783.7 km
Apogee alt
35,791.4 km
Semi-major
42,165.7 km
B*
0.0000e+0
RAAN
131.4761°
Arg perigee
331.4558°
Mean anomaly
216.6507°
Rev number
4,299

§ Raw data

DIRECTV 141 40333U 14078B   26263.16601697  .00000000  00000+0  00000+0 0  99962 40333   0.0173 131.4761 0000921 331.4558 216.6507  1.00268348 42993

JSON: /api/v1/satellites/40333 · /tle

For live sub-satellite position, see the globe view (requires WebGL).

§ Visibility from observer

Set your observer location to see the next 7 days of passes ≥ 10°. The values pass through the URL so the page stays shareable.

No JS? Fill the form by hand. The geolocation button needs JavaScript.